Regional Weather Roundup
Issued by NWS

Home | Current Version | Previous Version | Text Only | Print | Product List | Glossary On
Versions: 1 2 3 4 5 6 7 8 9 10 11 12 13 14 15 16 17 18 19 20 21 22 23 24 25 26 27 28 29 30 31 32 33 34 35 36 37 38 39 40 41 42 43 44 45 46 47 48 49 50
000
ASUS44 KOUN 020100
RWROK

WEATHER ROUNDUP FOR OKLAHOMA
NATIONAL WEATHER SERVICE NORMAN OK
800 PM CDT WED JUL 01 2015

NOTE: "FAIR" INDICATES FEW OR NO CLOUDS BELOW 12,000 FEET WITH NO
      SIGNIFICANT WEATHER AND/OR OBSTRUCTIONS TO VISIBILITY.

OKZ001>007-009>012-014-015-017-020200-
NORTHWEST OKLAHOMA AND THE PANHANDLE

CITY           SKY/WX    TMP DP  RH WIND       PRES   REMARKS
GAGE           MOSUNNY   92  62  36 S14       29.84R HX  92
GUYMON         MOSUNNY   95  57  27 E10       29.90R HX  94
ENID/WOODRING  MOCLDY    97  64  34 S15G21    29.77S HX  99
$$

OKZ016-021>023-033>039-044-045-020200-
SOUTHWEST OKLAHOMA

CITY           SKY/WX    TMP DP  RH WIND       PRES   REMARKS
LAWTON/REGL    CLEAR     92  65  40 S15G25    29.87R HX  94
LAWTON/FT SILL CLEAR     91  67  45 SW14G23   29.86R HX  93
FREDERICK      CLEAR     92  67  43 S17       29.85S HX  95
CLINTON        PTCLDY    91  67  44 S20       29.88R HX  94
HOBART         CLEAR     90  65  43 SW18G25   29.87R HX  92
ALTUS AFB      CLEAR     91  66  44 S18       29.86R HX  93
$$

OKZ018>020-024>031-020200-
CENTRAL OKLAHOMA

CITY           SKY/WX    TMP DP  RH WIND       PRES   REMARKS
OKLAHOMA CITY  PTCLDY    89  70  53 S17       29.86R HX  94
OKC/WILEY POST CLEAR     90  67  46 S15G23    29.85R HX  93
OKC/TINKER AFB CLEAR     88  70  55 S15       29.86R HX  93
STILLWATER     PTCLDY    89  71  55 S16       29.81S HX  95
GUTHRIE        CLEAR     92  66  42 S14       29.83R HX  94
$$

OKZ008-013-054>072-020200-
NORTHEAST OKLAHOMA

CITY           SKY/WX    TMP DP  RH WIND       PRES   REMARKS
TULSA          MOCLDY    90  74  59 S14G23    29.82S HX  99
TULSA/JONES    PTCLDY    90  73  57 S13       29.83R HX  98
PONCA CITY     PTCLDY    93  68  43 S10G21    29.76F HX  97
BARTLESVILLE   MOCLDY    88  73  61 S9        29.79F HX  95
MUSKOGEE       PTCLDY    85  72  65 S9        29.88S HX  91
$$

OKZ032-040>043-046>053-073>077-020200-
SOUTH CENTRAL/SOUTHEAST OKLAHOMA

CITY           SKY/WX    TMP DP  RH WIND       PRES   REMARKS
MCALESTER      CLEAR     87  71  58 S8        29.91R HX  93
$$



USA.gov is the U.S. government's official web portal to all federal, state and local government web resources and services.